Regional Weather Roundup
Issued by NWS

Home | Current Version | Previous Version | Text Only | Print | Product List | Glossary On
Versions: 1 2 3 4 5 6 7 8 9 10 11 12 13 14 15 16 17 18 19 20 21 22 23 24 25 26 27 28 29 30 31 32 33 34 35 36 37 38 39 40 41 42 43 44 45 46 47 48 49 50
000
ASUS43 KDTX 191210
RWRMI
MICHIGAN HOURLY REGIONAL WEATHER ROUNDUP
NATIONAL WEATHER SERVICE DETROIT/PONTIAC MI
800 AM EDT THU OCT 19 2017

NOTE: "FAIR" INDICATES FEW OR NO CLOUDS BELOW 12,000 FEET WITH NO
SIGNIFICANT WEATHER AND/OR OBSTRUCTION TO VISIBILITY.

MIZ047>049-052>055-059>063-066>070-074>076-081>083-191300-
SOUTHEAST LOWER MICHIGAN

CITY           SKY/WX    TMP DP  RH WIND       PRES   REMARKS
ADRIAN         CLEAR     47  43  86 SW6       30.09S
6HR MIN TEMP:  47; 6HR MAX TEMP:  49;

ALMA           PTCLDY    52  46  80 SW10      30.01S
ANN ARBOR      CLEAR     47  44  90 SW8       30.07R
BAD AXE        CLOUDY    56  45  66 SW10G20   29.98R
6HR MIN TEMP:  56; 6HR MAX TEMP:  60;

CARO           CLOUDY    56  45  66 SW10      29.99R
DETROIT CITY   CLEAR     54  45  71 SW14G21   30.06S
6HR MIN TEMP:  53; 6HR MAX TEMP:  57;

DETROIT        PTCLDY    52  45  77 SW10      30.08R
6HR MIN TEMP:  52; 6HR MAX TEMP:  56;

FLINT          PTCLDY    54  45  71 SW9       30.03R
6HR MIN TEMP:  54; 6HR MAX TEMP:  56;

GROSSE ILE     CLEAR     54  46  74 SW8       30.06S
6HR MIN TEMP:  53; 6HR MAX TEMP:  55;

HILLSDALE      CLEAR     48  43  81 SW6       30.08R
HOWELL         PTCLDY    52  45  77 SW6       30.05R
6HR MIN TEMP:  52; 6HR MAX TEMP:  55;


CITY           SKY/WX    TMP DP  RH WIND       PRES   REMARKS
JACKSON        CLEAR     53  45  74 SW12      30.07R
6HR MIN TEMP:  53; 6HR MAX TEMP:  57;

LAMBERTVILLE   CLEAR     56  46  68 SW8       30.09S
6HR MIN TEMP:  55; 6HR MAX TEMP:  59;

LANSING        PTCLDY    53  44  71 SW10      30.05R
6HR MIN TEMP:  53; 6HR MAX TEMP:  56;

LAPEER         FAIR      53  44  70 SW9       30.03R
6HR MIN TEMP:  53; 6HR MAX TEMP:  57;

MASON          CLOUDY    54  46  72 SW5       30.06R
MONROE         CLEAR     55  45  68 SW10      30.07S
6HR MIN TEMP:  55; 6HR MAX TEMP:  59;

MT. CLEMENS    PTCLDY    54  46  74 SW10      30.03R
6HR MIN TEMP:  54; 6HR MAX TEMP:  57;

PONTIAC        MOCLDY    50  45  83 SW7       30.04R
6HR MIN TEMP:  50; 6HR MAX TEMP:  54;

PORT HOPE        N/A     56  45  66 SW8       29.94R
6HR MIN TEMP:  56; 6HR MAX TEMP:  62;

PORT HURON     PTCLDY    55  45  67 SW5       30.04R
TRI CITIES     PTCLDY    55  48  77 SW12      30.00R
6HR MIN TEMP:  55; 6HR MAX TEMP:  59;

MIDLAND        FAIR      52  46  80 CALM      29.99R
6HR MIN TEMP:  51; 6HR MAX TEMP:  56;

TROY           CLEAR     51  43  74 SW9       30.07R
SAGINAW HB     CLOUDY    54  45  71 SW9       30.00R
$$
MIZ043>046-050>051-056>058-064>065-071>073-077>080-191300-
SOUTHWEST LOWER MICHIGAN

CITY           SKY/WX    TMP DP  RH WIND       PRES   REMARKS
BATTLE CREEK   CLEAR     52  46  80 SW10      30.07R
6HR MIN TEMP:  52; 6HR MAX TEMP:  55;

BENTON HARBOR  PTCLDY    55  50  83 SW7       30.09R
6HR MIN TEMP:  55; 6HR MAX TEMP:  60;

BIG RAPIDS     CLOUDY    51  42  70 W6        30.01R
6HR MIN TEMP:  51; 6HR MAX TEMP:  57;

COLDWATER      CLOUDY    52  46  79 SW8       30.09R
6HR MIN TEMP:  52; 6HR MAX TEMP:  54;

FREMONT        FAIR      52  41  64 W7        30.03R
HOLLAND        PTCLDY    58  43  57 W7        30.06R
6HR MIN TEMP:  58; 6HR MAX TEMP:  60;

GRAND RAPIDS   CLOUDY    51  49  92 SW8       30.04R
6HR MIN TEMP:  51; 6HR MAX TEMP:  57;

IONIA          FAIR      54  47  78 SW12      30.03R
6HR MIN TEMP:  54; 6HR MAX TEMP:  57;

KALAMAZOO      CLOUDY    49  44  83 SW8       30.08R
6HR MIN TEMP:  49; 6HR MAX TEMP:  52;

LUDINGTON      PTCLDY    55  33  44 NW9       30.02R
6HR MIN TEMP:  55; 6HR MAX TEMP:  61;

MARSHALL       CLEAR     52  45  78 SW7       30.07R
6HR MIN TEMP:  51; 6HR MAX TEMP:  54;

MOUNT PLEASANT PTCLDY    55  47  76 W5        29.99R
6HR MIN TEMP:  55; 6HR MAX TEMP:  59;

MUSKEGON       PTCLDY    58  42  55 W12       30.05R
6HR MIN TEMP:  58; 6HR MAX TEMP:  63;

SOUTH HAVEN    CLEAR     59  51  75 W7        30.07R
$$
MIZ016>042-191300-
NORTHERN LOWER MICHIGAN

CITY           SKY/WX    TMP DP  RH WIND       PRES   REMARKS
ALPENA         CLEAR     54  46  74 W6        29.92R
6HR MIN TEMP:  54; 6HR MAX TEMP:  63;

BEAVER ISLAND  CLOUDY    55  28  36 W17G23    29.92R
6HR MIN TEMP:  54; 6HR MAX TEMP:  62;

BELLAIRE       CLOUDY    55  32  40 W5        29.96R
6HR MIN TEMP:  55; 6HR MAX TEMP:  62;

CADILLAC       CLOUDY    51  37  59 W6        29.98R
CHARLEVOIX     PTCLDY    56  28  35 W20G25    29.97R
6HR MIN TEMP:  56; 6HR MAX TEMP:  64;

FRANKFORT      PTCLDY    56  28  34 NW10      29.99R
GAYLORD        CLOUDY    48  29  47 W6        29.94R
6HR MIN TEMP:  48; 6HR MAX TEMP:  58;

GRAYLING       PTCLDY    49  39  67 W3        29.97R
6HR MIN TEMP:  49; 6HR MAX TEMP:  57;

HARBOR SPRINGS CLOUDY    54  25  33 W9        29.93R
HOUGHTON LAKE  PTCLDY    54  43  66 W10       29.97R
6HR MIN TEMP:  54; 6HR MAX TEMP:  58;

MANISTEE       PTCLDY    56  28  34 NW12G20   30.01R
OSCODA         CLOUDY    49  43  78 SW7       29.94R
6HR MIN TEMP:  49; 6HR MAX TEMP:  56;

PELLSTON       CLEAR     52  30  43 W5        29.91R
6HR MIN TEMP:  51; 6HR MAX TEMP:  64;

ROGERS CITY    CLEAR     53  37  54 W6        29.92R
TRAVERSE CITY  MOCLDY    54  32  43 W6        29.96R
6HR MIN TEMP:  52; 6HR MAX TEMP:  64;

$$
MIZ007>008-015-191300-
EASTERN UPPER MICHIGAN

CITY           SKY/WX    TMP DP  RH WIND       PRES   REMARKS
KINROSS        CLEAR     45  29  53 W9        29.87R
6HR MIN TEMP:  45; 6HR MAX TEMP:  61;

MACKINAC ISLAN CLEAR     55  26  31 W18G25    29.88R
6HR MIN TEMP:  55; 6HR MAX TEMP:  64;

NEWBERRY       CLEAR     46  25  44 W12       29.88R
6HR MIN TEMP:  45; 6HR MAX TEMP:  55;

S. S. MARIE    CLEAR     51  30  44 W10G18    29.84R
6HR MIN TEMP:  51; 6HR MAX TEMP:  62;

MUNISING         N/A     48  23  37 S8        29.88R
6HR MIN TEMP:  46; 6HR MAX TEMP:  58;

$$
MIZ004>006-011>014-085-191300-
CENTRAL UPPER MICHIGAN

CITY           SKY/WX    TMP DP  RH WIND       PRES   REMARKS
MANISTIQUE     CLOUDY    48  14  26 SW9       29.90S
6HR MIN TEMP:  47; 6HR MAX TEMP:  57;

ESCANABA       CLOUDY    43  27  53 W7        29.95R
6HR MIN TEMP:  42; 6HR MAX TEMP:  57;

MENOMINEE      PTCLDY    47  26  44 W5        30.01R
6HR MIN TEMP:  47; 6HR MAX TEMP:  59;

SAWYER-GWINN   CLEAR     43  21  42 SW9       29.91R
$$
MIZ001>003-009>011-084-191300-
WESTERN UPPER MICHIGAN

CITY           SKY/WX    TMP DP  RH WIND       PRES   REMARKS
IRON MOUNTAIN  MOCLDY    46  21  37 W7        29.95R
6HR MIN TEMP:  46; 6HR MAX TEMP:  56;

HOUGHTON       LGT RAIN  51  28  41 W29G37    29.83R
6HR MIN TEMP:  51; 6HR MAX TEMP:  53; 6HR PCP: TRACE;

COPPER HARBOR    N/A     53  29  39 NW15G29   29.80S
6HR MIN TEMP:  53; 6HR MAX TEMP:  56;

IRONWOOD       CLOUDY    46  24  42 W14       29.96R
6HR MIN TEMP:  45; 6HR MAX TEMP:  49;

$$

ABBREVIATIONS USED IN REMARKS
   TC - TEMPERATURE IN CELSIUS
  WCI - WIND CHILL INDEX
   HX - HEAT INDEX
  VSB - VISIBILITY





USA.gov is the U.S. government's official web portal to all federal, state and local government web resources and services.